Theta_e
315 315 312 312 314 312 313 311 307 308 309 312 313 315 319 323 326 327 329 329 329 326 323 323 324 325 323 325 328 326 319 313 312 313 314 313 312 311 310 310 310 312 314 314 313 312 311 311 311 312 316 317 317 319 317 319 318 320 330 327 321 323 322 318 317 314 316 319 312 309 313 315 315 313 313 315 314 314 314 315 316 317 318 317 317 317 314 313
315 315 312 311 313 314 313 310 307 306 306 309 310 313 315 318 321 324 327 327 327 324 321 322 323 320 316 321 327 320 313 312 312 313 313 311 311 311 310 310 310 313 314 314 313 311 311 311 311 313 316 317 316 317 317 318 316 321 328 321 325 332 319 314 314 310 312 314 311 310 312 314 315 313 313 315 314 313 315 315 314 316 317 316 316 316 314 313
315 314 312 311 314 314 312 308 307 306 306 306 307 310 311 314 317 320 324 324 323 322 321 322 321 318 314 318 320 313 311 311 311 311 312 311 311 311 309 310 311 312 314 313 312 311 311 311 312 314 316 316 316 317 317 317 315 316 320 321 330 327 314 311 312 311 312 312 310 310 311 312 313 313 314 314 314 313 315 315 314 315 316 316 317 317 315 313
314 314 312 312 314 313 311 308 307 307 306 305 305 306 308 311 313 315 318 319 320 319 320 321 320 318 315 315 313 311 311 311 311 311 311 311 311 310 309 311 312 312 313 312 311 310 312 312 313 314 316 315 314 316 316 316 315 314 319 324 322 314 313 314 312 312 312 311 312 311 311 312 312 313 313 313 315 315 314 314 315 315 315 315 316 317 315 314
314 315 312 313 315 312 309 309 309 309 306 305 305 305 306 308 310 312 313 315 317 319 320 320 319 318 314 313 311 311 311 311 311 311 311 312 311 310 310 311 313 313 313 311 311 311 312 313 313 315 315 314 314 316 315 314 315 315 315 316 312 309 314 314 311 313 312 312 312 310 312 312 313 313 313 314 317 317 314 314 315 315 314 315 315 316 315 314
315 315 312 313 314 310 309 310 310 309 306 306 305 305 305 306 308 310 312 314 316 317 318 317 316 315 313 312 311 310 310 311 313 312 312 313 311 310 310 311 313 314 312 311 311 311 312 313 314 314 314 313 314 315 315 313 314 317 314 310 310 311 313 312 311 313 312 312 311 310 312 312 312 313 312 313 315 316 314 315 315 315 314 314 315 315 315 315
315 315 311 312 312 309 310 311 310 308 306 306 306 306 306 305 306 307 310 312 313 313 313 313 312 311 311 311 310 309 310 311 312 313 313 312 311 310 311 312 313 314 312 310 311 312 313 313 314 314 313 313 313 312 313 313 312 318 317 310 311 311 311 312 312 312 312 313 312 311 313 312 312 313 312 312 314 315 314 315 314 315 315 314 315 315 315 315
315 315 311 310 310 309 310 310 309 308 307 307 307 307 307 306 307 307 308 310 310 311 310 310 310 310 310 309 309 309 310 311 311 312 313 312 311 310 312 313 314 313 311 311 311 312 313 314 313 313 313 312 313 312 312 313 312 317 318 311 310 311 311 311 311 311 311 312 312 312 312 311 312 312 311 312 315 315 314 315 314 315 315 314 314 314 315 315
314 314 312 310 310 309 309 309 308 308 308 308 308 308 308 308 308 308 309 309 310 310 310 310 309 309 309 309 309 309 310 310 311 312 313 313 310 310 314 314 313 312 311 311 311 312 313 313 313 314 313 311 312 313 312 314 314 313 314 311 310 311 311 311 311 311 311 311 311 312 312 311 311 312 313 314 314 314 314 314 314 315 315 314 314 314 314 314
312 313 312 310 310 309 308 308 308 308 308 308 308 308 308 308 309 309 309 309 309 309 309 309 308 308 309 309 308 309 310 311 311 312 312 313 311 311 315 313 312 311 311 311 311 312 313 313 314 313 313 312 312 312 311 313 314 312 311 311 311 311 311 311 312 311 312 312 311 314 313 311 311 312 315 315 314 314 314 314 313 314 315 315 314 314 314 314
312 312 312 310 309 309 309 308 309 309 308 308 308 308 308 308 309 309 308 309 309 309 309 309 308 308 308 309 308 308 312 312 312 311 311 313 312 312 314 313 311 311 311 311 311 312 313 313 313 313 314 313 312 311 311 312 312 312 312 313 312 311 312 312 312 312 312 313 311 313 313 311 311 313 315 314 314 315 314 314 313 314 315 315 315 314 314 314
312 311 311 310 309 308 309 309 309 309 309 309 308 309 308 309 308 308 309 309 309 309 309 309 308 308 308 308 309 309 312 313 313 311 310 312 314 314 314 312 311 311 311 311 311 312 312 313 313 313 314 313 313 312 312 312 312 312 313 316 314 312 314 312 311 311 312 314 312 312 313 314 315 314 315 314 314 315 314 314 314 314 315 315 315 314 314 315
314 311 310 309 309 308 308 308 309 309 309 309 309 308 308 308 308 309 309 309 310 310 310 310 308 307 308 308 309 309 311 313 314 313 311 312 314 315 313 311 311 311 311 311 312 311 312 314 313 313 313 313 313 312 312 311 311 312 312 316 316 314 315 311 310 312 312 313 311 311 315 320 319 313 313 314 314 314 314 314 314 314 315 315 315 314 315 315
315 313 310 309 309 308 308 308 308 309 309 309 308 308 308 309 309 309 309 309 310 310 310 310 308 307 307 309 310 310 310 312 315 315 313 312 314 314 312 311 311 311 312 311 312 311 313 314 313 313 313 313 312 311 315 314 314 315 310 315 317 313 317 313 309 311 313 312 311 311 313 320 320 312 310 313 313 314 314 314 314 314 314 315 315 314 315 315
315 313 311 310 309 309 308 308 308 308 308 309 308 308 308 308 309 309 309 309 309 310 310 309 308 307 307 308 309 310 310 311 313 315 314 314 313 312 312 312 312 312 312 312 312 312 314 314 314 313 312 313 312 313 318 319 321 320 312 315 315 311 318 316 309 309 313 313 311 311 314 319 317 310 310 312 312 313 313 314 314 314 314 314 315 314 314 314
315 313 311 311 310 309 309 308 308 308 308 308 308 308 308 309 309 309 309 309 309 309 309 309 308 307 307 308 309 310 310 310 312 313 314 314 312 312 312 312 312 313 313 312 313 314 315 314 313 312 311 312 314 316 319 318 323 323 316 319 317 313 316 315 311 308 310 313 311 311 315 319 317 311 312 313 312 313 313 314 314 314 315 314 314 314 314 315
315 313 311 311 310 310 309 309 308 308 308 308 308 308 308 308 308 308 309 308 309 308 308 308 307 307 308 309 311 311 311 311 311 312 313 313 312 311 312 313 313 314 314 314 314 314 314 313 312 313 312 312 314 318 318 315 318 319 318 321 318 316 315 315 315 310 308 313 314 313 314 319 318 311 311 312 312 314 312 313 314 314 314 314 315 314 315 314
315 315 313 311 311 310 309 309 308 307 308 308 308 308 308 308 308 308 308 308 308 307 308 308 307 308 309 308 311 312 311 312 311 311 312 312 311 312 312 314 314 315 315 314 313 314 314 312 312 316 315 312 314 316 316 315 316 316 317 318 316 315 314 316 319 312 310 313 315 315 315 317 318 312 311 311 312 313 313 313 313 314 314 314 315 314 315 315
315 315 315 313 311 311 310 309 308 307 307 307 308 308 308 307 307 307 307 308 308 308 309 309 308 310 311 309 310 312 313 312 311 311 311 311 312 312 313 314 314 314 313 314 314 313 313 312 313 317 316 314 314 314 317 319 318 317 318 320 321 320 317 317 319 311 309 315 316 317 317 318 319 316 312 311 311 311 312 313 313 314 315 315 316 315 316 315
315 315 315 314 312 311 310 309 309 308 307 308 307 308 307 307 308 308 307 308 308 309 309 309 308 310 312 310 309 312 313 312 312 311 311 312 312 313 313 313 314 313 313 316 316 312 313 316 315 316 315 314 314 313 317 319 317 316 318 322 322 320 318 316 316 310 307 314 317 317 319 318 318 317 312 310 311 310 310 312 313 315 315 315 316 316 316 316
316 315 315 314 313 312 310 310 309 308 307 308 308 308 308 308 309 310 308 308 309 309 310 309 308 309 312 310 309 313 313 312 312 311 312 312 312 313 313 313 314 314 312 312 314 312 314 316 316 316 314 313 313 314 316 316 315 316 317 319 317 318 319 314 313 313 308 312 317 316 318 317 317 317 311 308 309 310 310 311 313 314 315 315 315 315 315 315
317 316 314 314 314 312 311 310 309 309 308 308 307 308 308 308 310 310 309 309 309 310 310 309 308 309 312 310 311 313 312 312 312 312 312 312 313 313 312 313 315 314 312 310 313 314 315 317 316 313 310 310 313 315 318 317 317 319 318 317 317 319 319 313 311 314 310 312 317 317 319 319 318 318 312 308 309 311 312 312 313 314 314 314 314 314 314 313
317 317 315 314 314 313 312 311 310 309 309 308 307 308 308 309 311 310 308 308 309 310 310 310 309 309 311 311 311 313 312 312 312 312 313 312 313 312 312 312 314 315 313 313 315 315 317 318 313 308 307 310 314 314 317 318 317 320 318 317 318 317 319 318 313 313 311 312 316 318 319 319 318 317 315 309 306 309 312 313 313 313 313 314 314 314 313 313
318 317 315 314 313 313 313 312 311 310 309 308 307 308 308 309 311 310 308 308 309 309 309 310 310 308 311 311 312 313 312 311 312 312 312 313 313 312 311 311 313 314 312 313 315 314 317 313 306 305 309 313 313 313 317 318 316 315 317 322 322 318 320 320 314 313 312 311 314 316 315 322 325 322 320 313 306 307 310 311 313 313 313 314 314 314 314 314
317 316 315 314 313 313 313 312 311 310 309 308 307 308 307 309 310 309 308 308 308 309 308 310 310 309 310 311 312 313 313 311 311 312 312 313 313 311 311 310 312 313 313 313 313 314 314 307 304 309 312 313 312 313 317 319 317 314 316 326 327 321 321 318 314 316 317 314 312 311 313 328 333 327 324 320 315 315 310 306 311 315 314 313 314 315 315 315
317 316 314 313 313 313 312 312 312 310 310 308 308 308 307 309 310 308 310 311 310 309 308 309 310 310 310 312 312 312 313 313 312 312 313 312 312 311 311 310 310 312 312 312 312 314 312 306 308 312 312 314 314 313 315 317 318 314 315 321 322 321 322 320 316 318 321 314 309 310 315 323 327 326 325 322 322 325 315 308 309 312 313 313 313 314 314 314
316 315 314 313 313 312 312 312 311 310 310 308 308 309 308 309 310 308 310 312 311 310 308 308 310 310 311 312 312 312 315 315 312 312 313 313 312 310 311 311 310 310 308 310 314 313 310 309 311 312 313 315 315 314 313 316 318 314 314 316 320 323 323 321 320 322 322 313 312 317 319 315 317 320 320 316 319 323 321 318 312 309 311 313 312 313 313 313
316 314 314 314 313 312 311 311 311 310 310 309 308 309 308 309 309 308 310 311 311 310 308 308 309 310 312 312 312 312 313 314 312 313 312 312 312 310 311 311 312 314 308 309 315 311 310 315 314 313 314 314 315 315 313 317 321 316 310 313 317 320 324 325 326 325 318 310 316 322 314 311 319 323 320 314 315 319 322 322 315 308 311 313 313 314 314 313
315 315 315 314 314 313 311 311 311 310 310 308 308 309 309 309 308 308 310 309 309 309 308 308 310 311 312 312 311 311 311 311 312 313 312 312 312 310 311 309 310 314 309 309 318 314 310 313 311 312 315 313 315 314 312 320 323 312 307 312 315 317 322 324 324 323 316 313 321 323 312 311 319 327 323 313 313 319 320 319 313 308 312 314 313 314 313 313
316 317 316 315 315 313 312 311 311 310 309 308 309 310 310 309 308 308 308 308 310 309 307 307 310 311 312 311 311 310 311 311 311 311 311 311 311 309 310 309 309 316 316 316 320 315 309 310 309 311 312 311 311 310 309 315 313 308 313 317 316 321 324 324 324 320 314 317 321 318 314 312 313 324 325 313 314 319 317 317 313 310 313 314 314 315 314 314
317 317 315 315 315 313 312 311 310 310 309 308 310 311 309 310 310 309 307 309 312 310 306 308 309 311 312 312 312 311 312 311 310 311 311 311 311 310 310 310 311 316 320 320 318 314 312 312 310 310 309 308 312 314 309 308 307 311 322 321 316 322 324 324 327 319 313 321 319 312 312 312 311 321 324 316 316 315 314 319 319 314 314 314 315 316 315 316
316 315 314 314 314 313 312 311 311 310 308 309 311 310 308 310 310 309 308 309 311 310 309 310 309 311 313 312 313 313 313 313 309 311 313 312 312 311 311 313 315 315 314 316 317 315 316 316 311 309 309 309 317 320 313 311 313 315 320 321 319 321 319 321 327 319 316 320 313 310 313 311 312 317 317 317 317 313 310 312 315 313 312 314 315 316 316 317
315 314 314 314 314 313 312 311 310 309 309 311 311 309 310 311 309 309 308 308 310 310 310 310 309 311 312 312 313 312 312 314 311 311 312 312 312 311 311 315 318 318 316 317 318 315 317 319 313 312 312 310 314 319 316 316 317 314 315 319 322 321 314 316 320 314 315 317 310 309 312 312 315 315 314 317 313 310 308 307 309 311 311 314 314 316 317 316
313 314 313 313 313 312 311 311 309 309 311 312 310 309 311 311 309 309 308 308 310 309 309 311 311 311 312 312 312 312 312 312 311 311 312 312 313 312 313 312 314 321 321 317 317 316 317 319 316 314 313 311 313 315 318 319 315 313 314 315 319 324 322 319 320 318 318 318 313 309 312 318 320 313 312 313 308 307 310 309 310 310 312 314 313 316 317 315
312 312 312 312 311 310 310 310 309 310 312 311 308 308 310 310 309 310 308 308 311 310 309 310 311 312 312 311 311 311 313 313 311 311 312 313 312 312 313 310 311 320 321 315 315 315 314 315 315 311 308 311 314 311 312 316 316 313 311 312 315 322 325 319 315 317 316 315 314 312 315 322 319 312 311 308 306 307 308 308 309 310 313 313 314 317 316 315
312 312 312 311 310 309 309 309 309 311 312 310 308 309 310 309 309 310 308 309 311 310 310 310 311 312 312 311 312 310 311 314 312 312 313 312 312 312 312 311 311 315 315 315 317 316 313 313 314 311 308 310 313 310 308 311 315 314 311 314 316 315 321 318 309 309 311 312 315 314 316 319 315 313 317 314 312 313 310 307 307 310 313 313 315 317 315 316
312 312 312 311 309 309 310 309 310 312 311 309 308 310 309 308 309 310 308 308 310 310 311 311 310 312 312 311 313 312 312 314 312 312 313 312 312 312 312 311 311 311 312 314 316 317 317 315 313 314 313 310 307 308 307 306 311 316 315 315 312 309 317 319 313 316 316 314 317 315 315 318 316 315 321 319 315 317 317 312 307 309 312 312 314 315 314 316
312 311 311 311 310 310 310 309 310 312 310 308 309 311 312 308 307 308 308 307 309 312 313 313 311 312 312 311 312 311 312 313 312 313 313 312 313 313 312 311 310 309 310 310 311 315 319 317 312 311 314 312 309 311 311 308 307 313 315 311 312 315 317 314 312 318 318 313 319 321 313 312 313 317 323 318 315 320 319 316 313 311 311 311 313 314 314 315
311 311 311 310 309 310 310 310 311 312 310 309 309 311 312 309 305 306 308 308 310 311 312 313 314 312 311 312 311 311 312 312 311 312 313 312 313 312 310 311 311 309 307 309 312 313 316 319 313 310 312 312 313 314 315 314 310 309 309 307 314 322 319 314 313 316 316 313 318 322 318 316 315 317 321 316 317 323 319 320 319 310 308 311 312 313 314 314
311 311 311 310 309 310 311 310 311 312 311 309 308 309 309 308 306 305 307 309 310 309 311 315 314 312 312 312 311 311 312 312 311 312 312 311 311 310 309 310 312 310 306 308 314 314 313 316 315 312 311 313 316 316 315 316 313 312 312 310 313 315 313 314 313 314 317 318 319 317 319 327 323 315 317 315 317 322 320 322 319 308 307 311 311 312 313 313
311 311 310 310 310 311 310 311 311 311 311 310 309 310 310 308 308 307 307 309 309 309 311 315 314 314 314 312 311 312 312 312 311 311 312 311 310 311 310 309 311 311 309 309 314 316 314 314 316 315 313 314 316 313 310 313 313 312 313 312 313 314 314 315 313 311 313 315 319 316 314 326 326 314 314 315 314 314 311 309 310 308 309 311 312 313 313 313
309 310 310 310 311 311 310 311 311 310 311 311 309 311 310 308 308 308 307 308 310 310 310 312 314 315 314 311 311 313 313 313 311 311 313 312 312 312 310 308 308 309 310 312 313 314 315 318 321 318 316 315 313 308 303 307 312 312 312 314 315 313 314 317 317 315 310 308 313 314 312 321 325 314 310 309 306 306 305 303 305 309 311 312 313 314 313 313
307 308 309 311 311 310 310 311 311 311 311 310 308 309 309 309 310 309 308 309 310 310 310 311 312 312 312 313 312 312 312 312 311 312 314 313 311 311 308 307 308 309 310 312 313 310 312 319 321 318 318 316 313 308 304 306 311 312 314 315 314 314 316 321 322 317 313 311 312 312 312 320 328 314 304 302 303 305 306 306 307 310 313 313 313 313 313 313
305 306 308 310 311 310 310 310 311 311 310 309 308 309 309 310 311 310 309 309 311 312 312 312 311 308 312 315 313 311 312 312 312 311 313 313 310 308 308 307 309 310 310 311 313 311 312 316 317 317 319 318 315 314 312 313 313 315 318 314 312 316 316 315 315 312 313 316 315 315 315 318 325 318 307 305 308 308 308 309 310 312 313 313 313 314 314 314
304 305 306 307 310 311 310 310 310 310 310 309 309 310 309 309 309 309 310 310 313 315 312 310 310 310 314 314 310 310 311 313 315 312 310 313 311 307 307 308 309 310 310 310 311 310 313 317 316 315 316 315 315 316 315 316 314 315 318 314 311 314 314 313 315 313 315 316 314 317 318 313 315 317 313 312 314 313 310 310 311 312 312 313 314 314 314 314
304 306 305 304 306 308 308 307 308 309 310 310 309 310 310 309 309 309 311 311 312 312 311 309 309 310 313 312 310 311 311 312 315 313 311 313 314 309 306 307 308 308 309 310 309 312 317 318 314 313 314 312 313 314 316 319 318 315 316 315 312 312 312 316 320 316 315 315 313 315 315 312 314 317 315 314 317 318 314 310 311 312 311 312 313 312 314 314
305 305 305 305 305 305 304 304 306 309 309 309 310 309 309 310 310 310 311 311 311 313 313 312 310 310 312 311 310 312 312 311 312 314 312 312 313 310 306 306 307 307 309 309 308 315 321 316 312 314 314 312 313 317 318 318 318 316 315 314 313 312 312 316 317 314 315 315 314 313 313 312 314 317 317 317 319 321 314 308 311 312 310 311 312 312 313 314
306 305 304 306 307 306 305 305 306 308 309 309 309 309 309 309 310 311 312 311 311 313 314 313 313 313 312 311 311 312 312 311 311 313 313 311 312 312 308 307 307 307 309 309 308 313 318 314 313 315 313 312 315 320 320 317 316 317 316 315 314 312 313 314 314 313 315 314 312 313 314 313 312 315 318 316 314 315 312 309 311 312 311 312 311 311 313 314
305 305 304 305 305 304 305 306 305 307 309 309 309 309 309 309 309 310 311 312 313 313 314 315 317 315 312 312 312 312 312 311 311 312 313 312 313 314 312 311 309 307 308 311 309 309 313 316 315 312 312 313 314 316 317 316 316 316 315 314 313 312 312 313 313 313 313 313 312 314 317 315 311 313 316 312 310 310 309 310 312 311 312 313 312 313 314 314
304 304 304 305 304 302 303 306 306 307 308 308 309 309 309 309 309 309 310 311 314 314 313 315 317 316 312 311 312 313 312 312 313 313 313 313 313 314 314 314 313 309 308 311 310 307 310 317 315 311 312 313 312 313 313 313 314 316 314 312 311 312 311 312 313 313 312 312 312 312 315 314 310 310 311 309 310 310 308 310 312 312 313 313 313 314 313 313
303 304 304 305 305 303 303 305 306 307 308 308 309 309 309 309 308 308 309 309 311 314 315 315 317 316 312 310 312 313 311 311 313 311 311 312 312 313 313 311 312 313 310 311 312 309 310 314 315 313 313 314 313 312 312 311 311 312 312 312 311 312 312 312 312 312 312 312 312 311 313 313 310 308 308 309 310 309 309 311 312 313 314 313 313 313 313 313
301 303 303 304 305 304 303 304 305 307 308 308 308 308 309 309 308 308 309 308 308 310 312 314 316 317 316 313 312 311 309 308 309 309 308 310 310 310 310 309 310 313 313 311 313 314 313 314 316 315 314 314 312 310 311 312 311 311 312 312 312 311 311 312 312 312 312 312 313 312 311 312 312 310 311 312 310 308 309 311 312 313 313 313 313 312 312 313
Wind_Speed
27 25 25 24 22 22 22 23 25 27 29 31 34 37 39 39 38 36 34 31 29 27 23 19 17 14 11 11 14 15 16 16 16 18 23 23 17 17 16 12 11 11 9 8 10 11 11 10 10 9 10 9 7 10 9 7 8 5 3 4 2 3 4 6 8 8 4 3 7 11 17 12 5 9 11 7 6 8 12 12 10 14 14 7 6 5 13 20
27 25 24 24 23 23 23 23 25 26 28 28 30 32 35 36 36 35 34 32 30 28 23 18 15 14 12 15 17 15 16 16 15 21 26 20 16 16 16 13 11 11 10 8 10 12 12 11 11 10 11 8 5 9 8 6 7 4 3 3 3 5 5 6 10 11 3 2 10 12 16 14 8 12 13 6 4 7 9 9 10 13 15 11 8 8 14 19
27 26 23 24 24 24 23 23 23 25 27 28 29 30 31 33 35 35 35 33 30 27 23 19 17 16 15 16 17 15 15 13 16 24 24 18 17 17 15 13 11 12 11 8 11 12 11 11 11 12 11 7 5 8 7 5 5 2 4 3 5 6 3 4 8 13 5 2 12 13 13 12 9 14 13 7 4 5 7 10 11 13 16 13 11 11 15 19
26 26 24 25 25 24 23 23 22 23 25 26 28 28 29 31 33 34 35 34 30 26 23 20 19 18 16 16 16 14 12 10 16 23 20 17 18 17 14 13 12 12 11 9 11 11 11 10 11 13 10 5 4 8 6 4 4 2 5 3 4 3 2 2 5 10 7 4 12 14 10 8 9 14 13 9 6 3 11 18 17 16 16 15 14 13 15 20
27 25 25 26 25 24 23 22 22 22 23 25 26 27 28 29 30 32 34 33 29 25 22 21 21 19 17 17 16 13 8 3 9 16 17 16 18 17 14 13 13 12 11 10 12 12 12 11 11 12 8 3 4 6 4 4 6 4 2 1 3 4 2 2 2 6 9 6 12 13 9 9 10 11 13 13 8 7 14 20 20 16 14 14 14 14 17 20
27 25 26 26 24 24 24 22 22 21 22 24 25 26 27 27 28 29 31 30 26 24 22 22 22 20 19 20 16 13 11 3 2 5 13 17 16 16 14 14 14 12 12 12 13 14 13 12 12 11 6 3 3 3 4 7 6 3 1 1 4 4 2 1 2 6 10 10 14 14 10 11 11 7 11 16 15 11 9 12 16 16 14 14 14 15 17 20
27 26 27 27 25 25 24 23 23 22 22 23 24 25 25 25 26 27 28 27 25 24 24 24 22 21 21 20 16 15 18 15 5 3 6 16 16 15 14 14 15 13 13 13 15 16 14 13 13 11 6 3 3 3 4 8 5 3 1 1 4 3 2 1 3 7 9 10 14 15 10 9 11 6 7 16 23 16 6 5 10 16 15 15 16 16 16 17
28 26 26 26 25 25 25 24 23 22 23 23 23 24 25 25 25 25 26 26 26 25 25 24 22 21 22 20 17 15 19 23 16 8 6 13 16 15 15 15 15 14 13 14 15 16 15 14 15 12 5 2 5 5 6 6 2 3 3 3 5 5 3 3 4 7 7 9 12 13 8 6 9 5 5 16 22 18 14 8 6 13 17 16 17 17 17 17
28 27 25 24 24 25 26 25 24 24 24 24 24 25 25 25 25 25 25 25 26 25 25 24 21 21 21 20 17 13 18 24 20 11 7 10 16 15 16 14 14 14 14 14 15 16 15 13 17 13 4 4 7 6 8 6 1 2 6 6 6 4 5 6 7 8 8 10 11 10 3 2 7 3 7 17 18 17 18 15 10 11 16 19 18 18 18 18
27 27 24 23 24 24 24 25 25 24 25 25 24 24 24 24 24 24 24 24 24 23 23 23 21 21 20 20 16 9 17 22 19 13 7 8 16 16 16 14 14 15 13 15 15 16 15 13 16 13 5 7 8 5 6 4 3 8 12 11 8 6 5 5 7 9 10 9 7 8 3 1 5 2 6 11 12 15 18 18 16 13 14 18 19 19 19 19
24 26 24 23 24 24 23 24 25 25 25 25 25 24 24 24 23 23 23 23 22 22 21 21 20 20 20 20 17 11 15 18 17 18 11 9 15 17 15 13 13 14 13 14 15 16 14 10 14 13 3 6 9 5 4 4 6 13 15 10 7 6 6 5 6 7 7 6 3 5 2 1 3 2 9 8 6 11 15 17 18 15 14 16 19 20 20 20
22 24 24 23 24 24 23 23 24 25 25 25 25 24 24 23 23 22 22 22 21 20 20 20 18 19 19 19 22 20 14 12 13 16 14 10 14 16 14 13 13 13 13 13 13 14 13 9 12 12 4 8 9 4 5 8 11 11 10 5 6 7 4 3 4 3 3 3 3 6 1 3 2 8 12 9 7 10 13 17 18 17 15 15 18 21 21 21
20 22 24 24 24 24 23 24 24 24 25 25 24 24 23 23 22 22 22 21 20 19 18 18 17 18 18 16 21 23 15 11 10 12 14 12 13 15 14 14 13 13 12 12 12 12 12 9 11 11 9 10 6 6 10 10 10 6 4 4 3 6 4 3 4 2 3 3 3 6 1 6 8 14 13 8 8 10 14 17 19 19 18 17 17 19 20 20
19 21 23 24 24 24 24 24 24 24 24 24 24 24 23 23 22 22 21 20 19 18 17 16 16 17 17 13 12 18 19 14 10 11 13 13 14 15 14 13 13 12 11 11 11 11 12 9 10 10 9 10 10 12 9 5 5 3 2 3 3 2 4 5 3 1 4 2 2 6 2 6 8 10 8 10 10 9 13 17 19 21 20 20 20 20 21 20
19 21 24 25 25 25 24 24 24 24 24 24 25 24 23 23 22 22 21 20 18 17 16 16 16 14 12 11 9 14 21 20 14 10 12 14 15 14 13 12 12 11 10 10 11 12 12 10 10 9 9 12 16 12 4 4 4 3 3 1 2 4 5 7 3 1 4 2 2 6 2 7 8 7 2 7 11 10 12 15 17 21 22 23 23 23 24 23
20 22 24 25 25 25 24 24 24 24 24 24 24 24 23 22 22 21 20 19 18 16 16 15 16 14 5 6 10 13 18 22 19 12 12 15 15 14 12 11 11 11 10 11 12 12 12 11 10 10 11 11 10 7 4 4 3 4 3 3 2 4 2 4 2 2 2 2 2 3 3 4 4 4 2 1 7 11 14 16 17 19 22 24 25 25 26 25
20 22 24 25 25 25 25 25 25 25 25 24 24 23 22 21 21 20 19 19 16 15 15 13 16 13 4 5 9 13 17 20 21 15 12 15 15 13 12 11 12 12 12 12 13 12 12 11 10 7 5 4 3 5 6 1 2 2 2 2 2 4 3 2 3 3 3 3 1 2 2 7 6 7 6 5 6 8 13 17 18 19 21 23 24 26 26 26
21 21 22 25 25 25 25 25 26 26 25 24 23 22 21 20 20 19 18 18 16 15 12 13 15 8 7 11 10 11 16 18 20 17 13 16 15 12 12 11 12 13 13 12 11 11 9 7 7 4 2 3 3 5 5 4 5 6 4 3 2 2 3 3 3 3 3 2 2 0 3 10 10 12 16 13 7 7 11 14 16 17 19 21 22 24 25 26
23 20 20 23 24 25 25 26 26 25 26 25 24 22 21 19 18 17 18 19 18 11 5 14 19 7 1 12 15 10 13 16 18 17 15 17 15 12 13 11 13 16 14 9 7 8 7 4 5 4 3 4 6 6 7 7 8 8 6 5 5 4 4 5 4 4 1 3 3 4 5 9 10 11 16 15 9 9 13 14 16 18 19 20 22 24 25 26
23 21 20 20 23 25 25 26 26 25 26 25 26 24 20 18 12 9 17 22 20 7 1 16 26 10 5 6 18 14 11 15 17 17 17 17 16 14 13 13 14 13 9 6 5 5 5 4 4 6 8 9 9 7 6 5 7 8 6 4 4 4 2 3 3 4 2 4 3 3 4 8 11 10 15 19 13 11 16 18 21 23 23 24 24 25 26 27
23 22 21 19 21 24 24 26 25 25 27 25 28 26 19 21 11 6 15 16 17 7 2 15 28 16 3 1 17 17 13 13 14 18 18 17 17 14 12 12 10 6 3 4 5 3 4 5 7 7 7 8 7 6 7 6 7 6 6 5 3 3 2 1 1 3 3 2 2 3 4 9 11 10 15 18 11 11 18 19 23 26 27 28 29 30 31 30
24 22 22 20 20 23 23 25 24 26 27 25 31 26 18 25 16 11 18 9 11 9 3 10 26 18 3 2 15 17 13 10 10 18 19 18 19 13 10 9 6 3 1 3 6 3 3 5 7 6 6 8 6 6 8 7 7 6 4 5 3 3 2 1 1 3 4 0 3 3 3 9 11 10 14 17 12 15 21 21 23 26 27 31 32 32 32 32
26 24 23 21 20 22 22 23 24 27 29 28 33 25 17 25 16 12 19 8 8 13 4 6 19 20 8 3 13 14 10 8 9 17 20 19 19 13 11 8 4 5 3 4 6 6 5 6 6 8 10 10 6 4 9 7 4 4 4 5 3 3 3 1 2 2 4 2 1 0 2 7 8 7 11 14 13 17 22 24 27 28 30 34 34 33 33 33
29 26 25 22 21 22 21 23 24 27 29 30 33 25 19 24 17 14 17 5 1 12 10 6 12 20 14 5 11 13 8 7 9 17 21 20 19 12 9 9 6 5 4 6 8 7 5 5 3 10 8 9 7 4 7 6 2 0 3 6 4 5 5 3 3 2 3 3 3 2 3 6 4 5 8 7 6 10 14 17 24 28 30 32 32 32 30 29
30 28 26 24 23 22 22 23 25 28 29 31 32 24 20 23 20 17 13 3 2 6 9 7 6 14 17 9 10 12 7 5 7 16 21 20 18 10 7 8 6 4 5 5 7 5 4 1 7 10 5 7 8 5 6 6 4 2 4 6 7 8 7 4 5 5 4 3 3 3 2 6 4 4 8 5 7 7 8 10 18 23 22 22 24 24 21 19
30 29 26 25 25 24 24 22 25 28 28 31 31 22 20 23 21 18 10 4 1 3 5 9 5 8 14 10 10 12 5 3 6 14 21 19 17 11 6 5 2 3 6 6 4 3 1 2 6 7 7 7 7 6 6 6 6 2 3 5 7 8 9 8 7 5 2 2 2 3 3 5 6 6 7 5 7 10 9 9 17 21 18 18 20 20 18 16
31 30 27 27 27 27 27 23 24 28 26 28 30 23 21 24 21 17 7 6 2 4 7 9 6 9 11 10 15 12 2 5 8 12 20 19 16 11 7 4 2 2 4 5 2 1 2 4 5 6 6 6 7 6 6 7 8 3 2 6 9 9 9 8 7 5 2 3 3 4 4 2 5 6 6 5 6 10 10 9 13 14 13 13 16 17 16 14
31 30 28 29 28 26 26 22 23 29 26 26 30 24 21 25 21 13 5 3 2 5 6 7 8 12 11 12 18 9 3 9 8 8 18 19 14 8 4 5 5 4 2 4 4 2 2 4 5 7 6 4 5 4 5 8 6 2 2 6 8 8 8 6 6 4 1 1 3 4 2 1 5 7 6 5 3 7 9 10 10 9 9 9 10 13 14 14
33 33 32 32 27 23 23 19 19 25 24 25 29 24 22 24 17 7 3 1 2 3 4 9 10 11 11 13 14 5 4 7 4 7 16 15 12 6 2 5 8 7 4 3 5 2 1 3 5 7 6 5 3 1 1 4 3 4 6 8 7 7 7 5 5 4 3 2 4 5 1 1 5 6 4 2 1 6 9 9 8 8 7 6 6 7 9 11
35 36 34 33 30 25 25 22 16 20 23 25 29 26 24 21 10 5 3 3 2 2 4 8 9 11 12 10 4 1 3 2 4 10 11 8 8 5 7 8 8 7 4 6 4 1 2 1 1 3 3 5 5 4 3 3 7 11 7 7 8 7 6 4 3 4 4 2 6 5 2 0 3 6 4 3 4 6 5 4 6 7 6 7 5 3 3 6
35 35 32 31 30 26 26 25 18 19 24 26 29 28 22 11 3 4 5 3 2 2 3 4 4 9 14 11 4 2 1 1 4 10 7 4 5 5 7 6 4 5 3 3 3 4 4 3 1 1 2 6 7 6 7 6 7 8 4 6 6 4 5 4 5 3 2 5 6 4 2 1 3 6 5 4 6 6 5 3 5 6 7 8 6 2 4 7
32 30 28 29 27 24 25 24 19 20 24 28 31 28 16 4 1 5 4 2 3 3 4 5 5 7 13 12 8 5 3 1 3 6 5 3 4 4 4 4 4 4 1 3 1 3 3 1 2 1 1 4 5 6 5 5 4 5 5 7 5 2 3 2 3 1 3 6 4 2 1 2 6 8 8 10 10 6 8 9 8 9 8 8 7 1 4 7
29 27 28 30 27 24 23 20 20 23 27 33 33 20 6 3 7 9 5 3 3 3 5 7 5 7 13 12 6 5 3 2 4 4 2 3 4 3 2 2 5 5 3 4 4 2 1 4 3 2 1 4 4 6 3 2 0 4 6 6 5 3 3 2 3 2 3 4 2 2 2 2 5 5 9 14 10 4 7 11 10 10 10 9 8 1 5 7
28 27 28 29 25 23 22 19 22 26 32 36 28 11 4 6 9 7 6 5 2 1 3 6 6 6 10 9 6 6 4 1 4 4 2 4 5 4 3 3 3 5 4 3 3 5 4 4 3 2 1 2 2 3 5 6 4 2 3 5 6 5 5 4 4 3 3 2 2 3 2 3 3 2 6 12 12 11 11 14 13 12 12 11 8 2 6 6
25 27 27 24 23 24 22 22 26 29 36 34 17 6 8 10 8 6 8 6 2 1 3 5 9 8 7 3 2 6 4 1 4 4 3 6 6 7 7 6 6 4 6 5 3 3 4 4 3 2 2 2 2 2 2 6 4 2 1 5 3 4 5 4 3 5 3 0 1 2 3 5 4 6 9 8 10 12 11 11 12 12 11 11 7 4 5 5
26 27 26 23 24 24 21 24 28 32 37 27 9 6 11 10 6 5 6 4 3 5 7 6 5 6 6 2 1 5 1 2 5 3 3 5 4 7 7 6 7 6 5 6 3 2 3 3 4 3 2 3 2 1 1 3 3 2 2 3 4 4 7 6 2 0 3 1 3 1 3 5 4 7 9 5 6 9 7 6 7 8 8 10 9 7 5 4
29 29 28 26 25 22 21 25 29 34 33 17 7 10 9 7 5 4 4 6 5 7 10 5 2 3 7 4 4 9 4 3 4 3 4 4 3 7 7 5 7 10 7 4 3 3 5 1 3 2 2 3 2 2 5 5 3 4 3 5 4 2 4 5 2 3 3 2 4 1 3 5 3 4 7 7 6 9 7 5 5 6 8 10 10 9 7 4
30 28 26 27 26 23 23 26 30 32 23 8 9 13 4 3 4 4 7 9 7 7 7 5 3 2 6 6 5 9 7 5 6 4 4 4 4 8 10 6 7 12 11 5 2 2 4 3 2 2 1 3 4 3 4 5 5 3 4 3 4 3 2 2 2 2 1 2 4 4 4 3 4 5 4 4 6 9 9 7 5 7 10 10 7 5 4 3
30 26 20 23 27 25 25 27 30 28 15 5 12 12 2 3 3 5 15 13 6 7 6 4 3 2 4 6 5 8 7 6 8 6 5 4 4 6 12 8 4 10 14 8 4 3 4 3 2 1 1 2 4 1 4 1 3 3 2 3 3 2 4 2 2 4 3 3 3 4 4 3 7 6 6 8 8 8 8 6 6 8 11 10 5 3 4 6
32 19 11 23 29 26 27 28 26 18 9 8 11 6 2 4 1 7 20 16 5 4 5 4 4 4 4 3 3 5 5 5 8 6 4 5 4 4 8 10 5 7 9 5 3 3 3 3 3 2 3 0 1 2 5 6 4 2 3 3 2 1 2 2 1 3 4 4 3 2 3 6 6 4 8 11 8 7 7 5 6 5 5 7 6 6 9 11
29 11 6 27 32 28 30 25 15 10 7 8 8 3 2 4 2 8 17 13 4 3 4 5 6 5 6 5 3 5 4 3 6 6 3 5 6 4 8 12 10 10 7 4 2 4 2 3 5 2 0 3 3 3 2 4 4 4 4 5 6 4 4 3 2 1 2 3 4 4 3 8 6 4 7 8 6 7 7 5 7 4 4 8 10 13 14 12
16 4 9 32 34 32 31 16 5 9 7 5 4 4 3 3 4 8 10 6 3 2 3 4 4 3 5 5 4 6 6 4 5 5 4 6 7 5 6 11 15 18 12 4 2 3 3 4 4 2 3 4 3 2 1 3 1 2 2 3 4 4 5 6 5 4 2 2 2 4 2 8 6 4 5 6 6 8 8 7 7 1 10 15 16 15 10 7
5 5 15 34 36 34 26 8 4 8 5 2 4 4 4 3 3 5 6 5 3 2 2 3 3 3 3 3 5 8 8 6 6 8 6 5 6 5 5 13 18 16 10 4 2 3 4 4 4 0 3 3 3 2 1 1 1 1 3 4 5 3 3 5 5 4 5 4 3 3 2 7 6 3 4 7 8 9 8 7 5 5 14 16 14 9 5 6
4 6 12 27 35 33 19 5 8 11 4 1 4 3 3 2 2 4 6 6 4 3 4 3 3 4 3 3 6 9 11 7 5 9 6 2 4 5 9 18 19 13 8 7 8 9 6 3 4 4 1 3 3 2 2 3 2 4 4 3 5 4 6 5 2 4 2 5 7 5 5 8 6 4 1 3 5 7 7 6 7 9 12 12 9 6 6 8
5 2 4 14 29 33 17 4 6 10 4 4 2 4 4 1 1 3 4 3 2 4 4 3 4 5 3 4 4 4 10 6 3 6 4 1 2 3 11 22 21 14 10 8 11 13 7 3 5 6 6 5 5 5 4 4 3 2 2 5 7 7 9 6 3 4 3 5 7 7 6 6 5 6 4 2 3 4 5 8 9 10 10 9 6 3 5 8
4 1 0 2 13 20 12 2 2 4 5 5 3 5 7 5 2 2 3 2 1 2 2 0 4 6 4 5 6 4 9 6 2 3 5 5 3 2 9 21 23 17 9 9 17 15 3 1 6 8 10 11 11 8 4 5 5 4 4 7 8 8 8 6 4 4 5 2 3 8 8 3 5 6 4 5 5 6 6 9 13 13 11 7 3 0 5 10
3 2 3 1 2 5 2 0 2 2 5 9 5 4 9 9 3 1 3 3 2 3 2 3 3 6 5 8 7 6 10 8 3 4 6 7 3 2 3 12 16 15 8 10 19 13 4 3 9 10 14 14 10 7 4 6 8 9 9 10 10 9 9 8 7 9 6 6 5 13 10 8 9 8 8 8 7 6 8 14 18 16 13 9 6 4 8 12
3 2 4 4 2 2 1 3 5 3 4 8 3 2 9 10 6 5 4 1 0 4 3 0 3 9 11 12 8 5 8 7 5 5 4 5 3 1 2 1 5 8 6 7 12 7 3 7 9 8 14 14 4 4 5 6 7 8 11 13 13 13 13 13 15 13 9 7 15 15 11 13 13 9 10 11 11 12 15 18 18 15 14 15 14 12 14 17
4 3 4 5 2 1 1 8 10 4 3 7 3 1 7 11 12 7 2 2 1 3 4 4 6 9 11 12 10 7 8 8 8 7 5 6 5 4 4 1 2 4 4 5 4 3 3 4 5 7 11 12 3 3 4 7 6 5 9 13 14 15 17 17 18 17 13 15 21 10 6 12 12 9 11 15 19 20 16 13 14 15 17 18 19 21 23 24
2 2 4 6 3 1 2 9 11 6 3 5 5 3 4 9 14 10 2 4 4 2 3 6 6 5 7 9 10 9 10 12 12 9 7 6 3 2 3 3 3 3 3 4 2 2 3 3 0 6 5 8 3 3 2 4 5 4 6 8 11 14 15 16 18 18 14 16 19 7 4 12 8 10 12 15 18 16 11 13 17 18 19 20 22 24 25 26
2 3 5 5 2 3 4 3 6 7 4 5 7 6 5 8 10 10 6 4 5 3 5 7 4 4 2 6 9 10 12 14 13 13 17 14 10 11 9 5 7 6 3 5 4 2 4 2 3 5 3 6 4 6 5 6 5 3 2 6 12 13 14 16 17 15 12 15 14 7 9 13 6 10 11 13 15 15 14 18 21 22 25 26 26 28 30 31
5 3 5 4 2 5 5 1 2 5 5 6 8 7 8 7 5 7 6 4 4 5 4 7 7 4 2 6 12 14 14 14 10 11 20 19 13 17 17 13 17 15 7 6 4 3 6 5 2 4 5 5 3 4 7 7 4 2 5 11 17 17 17 16 12 11 12 13 10 10 13 10 5 10 11 10 12 14 18 24 26 28 31 31 31 32 32 32
Wind_Direction
208 209 205 193 191 194 194 195 194 194 197 200 204 206 207 208 210 212 214 215 216 215 213 206 201 205 210 219 228 235 239 240 242 244 246 242 239 241 239 242 235 216 212 212 217 221 212 203 195 181 172 166 167 166 149 145 144 128 106 94 160 179 197 190 181 191 166 193 193 178 178 171 184 185 176 177 181 184 178 187 196 199 209 214 215 216 193 194
207 208 204 194 191 192 195 195 192 193 195 198 201 204 207 208 210 211 213 214 215 215 214 210 202 201 216 231 232 232 235 239 248 246 241 239 240 238 237 240 231 209 203 211 217 220 212 200 188 176 170 166 161 165 157 145 137 111 104 111 216 200 198 195 183 189 171 175 179 172 179 179 191 181 173 184 181 171 176 197 208 210 214 213 209 202 194 193
206 208 203 193 192 192 195 194 189 191 193 197 199 201 203 205 208 209 211 213 214 215 215 216 212 210 218 226 228 227 231 242 256 248 240 239 237 233 232 232 225 206 202 213 216 217 212 200 184 172 168 164 152 165 161 144 146 102 107 120 239 213 202 204 194 197 199 162 166 164 176 184 193 181 178 188 169 172 198 203 206 211 211 208 204 199 196 195
206 207 200 192 194 194 193 190 188 190 191 195 198 199 200 201 204 205 208 211 212 212 212 214 215 215 212 211 217 221 227 249 261 251 241 234 232 231 229 221 214 207 207 211 210 212 206 194 182 172 166 155 138 162 163 151 167 148 131 167 229 189 151 201 208 211 214 179 167 160 162 183 186 179 183 171 140 241 229 211 210 213 207 201 203 202 198 197
204 204 197 191 195 193 189 187 188 190 189 191 196 199 198 198 199 200 204 209 209 207 204 207 211 210 203 203 209 210 209 261 271 255 240 228 226 229 226 212 207 205 205 207 205 202 194 187 178 170 162 144 130 149 171 159 147 135 147 190 170 134 100 212 237 213 204 174 164 156 153 179 175 179 191 177 171 228 230 220 218 219 213 208 210 207 198 198
201 204 199 193 194 190 185 186 189 189 186 187 192 196 196 195 196 196 200 204 204 200 196 200 204 200 199 204 203 191 190 196 331 259 231 222 223 226 219 209 204 202 203 203 201 195 185 179 173 167 149 116 146 146 160 164 150 143 244 42 135 138 79 254 250 194 186 170 165 166 167 172 166 182 200 198 211 220 231 233 223 219 218 217 218 212 203 201
199 203 201 196 195 190 184 186 189 186 184 185 187 189 189 189 191 192 194 196 195 191 189 194 195 194 201 204 193 187 203 219 236 337 233 212 218 222 212 206 202 202 204 198 199 193 180 176 171 163 132 96 167 157 139 156 145 118 166 118 121 127 41 313 216 176 183 186 176 169 167 173 175 185 202 217 226 224 232 255 226 219 216 219 221 218 215 212
199 204 201 197 195 190 186 187 187 183 181 182 182 182 183 183 184 184 186 186 185 183 184 189 188 193 203 200 188 193 214 224 231 279 279 209 211 215 205 205 203 203 202 199 202 193 182 177 172 163 138 134 172 158 142 138 93 88 144 156 115 101 65 76 144 155 173 177 166 162 160 180 187 191 229 233 233 227 229 242 236 220 215 219 222 223 222 219
202 204 200 196 195 192 189 187 184 182 180 181 180 179 179 179 178 178 179 180 180 181 183 185 186 193 202 198 189 199 225 226 225 250 283 214 206 204 202 206 203 201 200 200 200 194 189 181 176 172 166 175 155 146 151 144 232 158 131 130 116 85 77 104 123 126 145 151 152 159 132 146 184 215 264 247 243 233 230 234 236 228 220 221 223 226 225 224
203 202 198 195 194 194 191 186 184 182 180 181 179 179 179 177 177 177 178 179 181 182 182 183 185 191 199 197 186 203 232 226 223 232 260 228 207 200 203 207 201 198 201 200 197 196 194 189 185 175 154 164 147 131 154 155 190 149 121 103 91 75 80 111 122 114 128 136 148 165 127 104 169 190 261 249 244 231 228 229 230 233 229 224 223 225 226 228
199 199 196 194 192 191 189 187 186 184 182 180 179 179 178 177 176 177 179 180 182 182 181 183 183 189 199 196 190 208 226 220 222 228 241 240 210 203 206 208 202 198 203 202 197 197 196 197 188 175 157 166 149 120 136 138 137 135 122 94 44 53 78 81 105 109 116 117 134 152 133 14 117 190 239 236 238 228 224 225 227 230 230 226 223 223 225 228
194 195 195 192 190 187 187 187 187 186 184 180 180 180 178 178 177 177 179 179 181 181 181 183 181 189 196 199 208 213 213 217 226 228 234 236 212 206 206 205 205 202 205 205 200 198 196 195 188 186 174 154 147 113 131 133 128 123 114 97 2 18 43 29 59 79 97 97 114 116 102 290 206 227 237 235 242 234 221 222 224 224 226 223 222 223 224 228
190 191 192 189 187 185 186 185 186 187 185 182 181 181 179 179 178 178 179 178 180 180 181 182 182 189 191 202 218 214 209 221 232 229 228 228 213 206 205 204 208 206 204 204 202 198 191 188 192 191 160 145 135 121 134 123 120 111 79 103 46 21 347 326 16 29 100 96 128 122 220 271 251 244 241 236 236 230 221 220 221 222 225 224 223 225 226 229
191 189 188 186 185 184 185 184 185 186 185 184 182 181 181 179 179 179 179 178 179 179 179 180 181 187 194 207 222 214 215 222 230 230 224 219 211 206 205 207 209 210 207 201 196 193 186 181 187 180 150 142 129 120 114 66 84 103 71 68 72 119 270 304 349 43 123 130 145 125 200 264 266 265 248 232 226 221 224 223 223 224 227 229 230 232 234 235
192 189 185 183 184 184 184 184 184 184 183 183 183 183 182 180 180 179 178 179 179 180 177 177 180 180 196 219 219 213 218 222 227 229 220 212 207 207 206 205 207 208 204 195 185 183 181 176 175 155 125 132 130 117 69 20 32 41 107 317 357 159 260 308 335 76 142 166 120 121 212 269 268 278 285 228 224 223 229 227 227 229 230 233 236 239 242 244
192 189 185 182 182 183 184 184 184 183 182 182 183 183 183 182 180 179 180 179 179 180 175 174 180 175 182 222 211 215 220 221 223 225 215 206 202 205 206 202 199 193 188 183 179 176 175 167 152 131 120 129 129 107 66 51 1 357 107 179 225 166 251 308 322 347 114 138 64 114 217 275 279 267 43 23 246 238 237 235 232 233 235 237 240 243 246 248
188 187 186 182 180 182 184 185 184 181 180 182 183 183 183 182 180 180 179 178 178 176 173 174 177 179 216 225 207 216 217 216 217 220 214 200 199 204 205 195 183 180 178 175 176 171 167 157 140 130 115 113 124 108 97 59 271 286 63 125 198 178 179 270 280 317 54 120 235 34 235 250 270 272 279 321 310 263 243 241 239 238 240 241 243 246 248 249
185 184 184 183 180 182 184 187 186 181 179 180 181 182 183 182 180 179 178 176 171 164 168 171 166 173 239 223 210 210 211 211 211 215 210 196 196 200 199 189 177 174 166 163 171 166 158 143 127 127 58 77 145 129 143 203 188 185 181 145 177 193 191 228 240 268 30 89 209 311 265 260 275 284 281 288 300 273 256 251 251 248 246 246 246 246 247 248
185 184 185 183 180 182 184 187 186 181 179 179 180 179 179 176 173 175 177 174 165 156 174 176 168 156 278 213 207 202 203 204 204 207 202 192 190 191 188 181 176 169 154 148 173 168 146 103 101 134 155 169 189 172 177 192 166 169 173 144 154 171 221 237 243 271 74 120 230 233 242 271 280 285 285 285 282 270 267 265 261 257 254 252 248 247 246 246
185 187 188 184 183 183 184 187 187 183 181 180 179 175 170 164 154 169 178 176 174 167 264 181 178 175 21 196 195 193 191 191 195 196 191 190 184 179 177 170 167 162 151 152 174 171 136 134 174 190 188 186 190 171 149 150 136 138 131 116 153 166 220 238 250 304 70 146 248 255 255 277 276 275 278 280 285 276 269 266 263 262 260 258 255 252 250 248
187 190 190 187 187 186 185 187 186 184 182 183 182 177 174 170 159 170 174 178 189 184 10 185 185 192 342 156 182 183 178 174 186 188 184 185 178 172 173 166 157 156 179 145 127 125 133 173 210 209 189 170 161 136 109 100 99 108 135 144 168 191 213 217 220 321 20 162 259 356 317 274 267 272 275 277 279 264 262 260 260 262 261 261 259 258 257 257
190 193 192 193 194 190 188 186 185 185 182 184 185 183 185 182 180 185 174 172 200 193 12 188 190 198 238 181 177 176 169 159 175 185 181 178 175 177 175 162 149 156 188 115 111 118 164 213 225 197 151 113 88 89 98 93 95 94 118 141 175 214 206 307 309 343 21 160 261 352 331 274 266 268 271 270 260 257 262 257 258 262 261 262 261 261 263 263
190 193 193 196 196 193 190 186 186 186 184 187 188 185 185 184 184 186 175 159 194 200 247 202 194 201 208 187 182 180 172 161 170 182 181 177 177 179 171 154 139 144 158 171 155 154 185 246 232 166 138 117 90 78 96 85 87 101 117 136 184 213 157 197 238 325 23 71 220 256 291 281 280 281 273 268 262 263 265 261 260 260 260 262 262 264 266 268
186 188 192 194 192 193 190 185 188 189 188 190 189 185 183 182 179 171 167 130 161 200 217 214 198 203 203 191 185 188 187 175 176 180 181 180 174 172 170 154 132 142 179 188 164 164 204 272 176 144 141 138 134 133 123 112 97 201 173 153 171 189 171 188 176 112 21 23 51 59 316 298 299 290 271 283 307 278 270 269 263 259 259 264 266 268 269 272
184 183 188 189 191 194 189 188 192 190 189 191 188 183 180 180 176 166 159 77 25 196 210 209 210 207 203 202 190 186 189 189 186 183 182 183 174 161 159 154 147 178 188 150 137 174 237 293 136 138 140 143 139 167 179 147 132 231 218 180 174 170 156 139 126 94 48 355 4 34 313 288 317 296 259 298 346 304 290 288 269 264 263 265 267 269 270 274
188 183 185 189 192 193 188 192 195 189 191 193 186 179 180 178 172 168 155 43 301 202 182 187 196 201 197 200 184 168 175 221 200 186 181 183 181 164 146 146 123 175 171 137 129 183 224 83 115 133 147 146 142 182 201 149 127 185 225 169 151 138 128 134 135 107 109 211 335 52 165 256 317 304 267 311 333 299 299 289 270 270 271 269 268 270 272 274
187 183 187 192 194 195 189 190 194 187 190 194 184 176 180 175 168 170 146 28 275 182 148 173 179 181 187 186 174 162 160 189 172 182 182 181 186 175 165 174 95 131 161 134 155 225 114 93 81 108 130 138 152 192 205 150 131 191 229 130 130 125 133 143 122 105 166 199 334 22 122 220 298 275 279 332 325 302 303 283 274 281 284 281 275 271 268 265
186 185 190 194 199 204 197 192 193 187 187 189 181 174 175 171 165 164 132 45 211 150 141 170 168 175 179 173 177 170 139 163 153 179 184 180 186 176 172 191 148 135 136 129 183 254 91 142 156 138 130 154 182 221 193 138 113 242 209 121 126 121 124 120 95 94 67 82 298 316 81 193 268 270 309 352 327 299 292 274 280 301 310 304 283 267 254 243
188 189 188 189 195 204 205 204 198 188 187 182 175 171 168 166 160 141 106 161 171 105 136 159 157 169 164 161 180 180 133 160 146 167 175 176 184 176 137 165 136 114 64 84 163 224 45 174 183 148 148 182 188 315 176 127 100 171 149 99 86 76 80 80 87 101 53 51 242 266 9 209 267 279 307 4 284 262 265 269 279 296 320 340 315 275 246 232
188 187 185 187 189 194 204 207 194 184 183 176 172 167 160 159 152 132 177 210 163 101 133 154 165 165 149 146 186 223 120 149 121 138 152 161 170 149 110 123 118 106 49 35 91 231 325 50 90 106 142 162 136 72 39 79 128 142 124 80 69 40 39 49 53 84 65 309 251 260 301 205 269 278 249 204 214 214 225 283 290 298 342 4 350 318 215 197
185 183 185 191 194 198 203 198 188 180 177 173 168 161 154 146 111 159 193 198 124 105 116 150 175 154 151 158 180 183 94 38 135 140 145 150 143 125 115 121 99 86 55 36 53 335 358 54 41 21 124 132 113 66 39 60 109 116 93 95 89 11 14 27 360 45 102 255 261 276 303 163 222 261 245 239 254 219 194 229 262 289 338 358 353 357 160 159
185 185 188 195 200 206 202 194 190 177 170 170 164 158 153 127 173 201 197 145 151 181 171 181 206 171 164 168 172 168 125 87 174 155 147 146 148 159 158 178 161 110 164 191 138 355 15 28 307 2 190 172 119 76 41 10 30 76 100 110 100 18 18 359 309 346 212 241 269 285 260 208 233 249 258 267 268 236 217 228 242 266 294 333 345 342 154 152
187 188 191 195 198 201 200 199 191 175 168 166 161 154 139 146 199 208 195 179 196 190 161 164 183 173 163 162 168 165 131 171 193 166 133 123 151 201 270 214 154 127 178 179 124 95 312 302 302 94 235 232 149 118 133 266 353 126 138 130 126 119 103 234 256 286 254 253 303 281 235 258 271 263 248 252 258 255 246 249 257 263 270 305 322 245 155 154
183 184 190 196 200 203 205 201 186 174 167 163 158 147 131 180 204 194 180 210 241 65 127 142 130 141 162 164 173 168 143 220 181 139 125 126 143 199 241 235 172 105 111 144 147 164 183 258 242 172 239 227 155 152 155 145 132 173 167 129 147 157 153 199 211 202 232 262 302 285 236 200 224 262 237 245 272 288 272 261 260 258 262 289 301 197 160 162
180 185 192 197 199 200 200 188 179 174 167 159 153 155 173 195 210 186 182 201 206 117 100 125 125 138 175 168 161 177 156 195 178 124 138 162 171 190 191 205 205 142 126 158 198 168 174 239 264 292 292 123 134 227 134 108 112 237 119 103 159 183 139 139 178 174 168 238 270 245 238 213 216 280 272 263 282 284 272 261 253 247 256 274 269 187 166 162
178 184 190 194 192 189 186 179 176 174 167 156 149 188 195 205 193 172 179 153 150 147 113 115 133 147 179 152 144 200 171 109 164 150 175 187 195 193 191 205 197 180 164 161 172 158 163 251 313 343 351 54 102 220 64 100 160 164 111 156 209 169 113 116 187 56 83 202 258 219 257 291 321 295 294 310 301 292 285 259 239 225 230 243 231 199 182 159
175 180 186 191 190 184 179 176 173 171 167 157 172 192 202 214 168 126 154 134 130 135 121 141 186 146 173 173 177 191 178 124 161 176 187 188 209 192 195 221 191 190 198 160 170 200 157 158 336 30 59 7 15 96 58 47 97 120 167 199 185 123 93 112 154 10 47 235 275 307 244 289 321 278 317 344 297 282 282 269 261 236 217 224 227 218 218 214
173 177 185 191 191 182 174 172 170 168 164 159 203 202 201 201 177 115 138 134 121 128 132 167 168 118 175 184 187 182 171 165 175 183 176 188 245 197 179 198 194 192 199 171 163 209 132 124 323 29 131 310 347 87 82 28 46 117 177 163 119 143 175 107 139 165 133 233 278 306 282 260 215 228 298 306 241 249 267 280 287 258 234 230 231 225 225 213
172 173 182 191 186 173 168 169 167 165 164 179 204 210 188 148 203 163 152 144 131 147 160 181 160 115 170 176 175 177 180 177 170 178 183 186 241 206 179 185 190 191 192 170 161 189 118 132 228 331 268 294 6 84 179 197 26 49 101 98 77 128 162 158 145 162 176 200 245 308 325 260 226 215 213 226 222 224 249 269 272 255 235 222 205 149 147 134
172 166 178 186 176 162 162 166 164 163 183 202 194 202 165 144 239 178 161 152 147 168 170 186 169 142 155 162 156 172 185 172 166 187 214 189 206 229 197 187 163 170 174 133 124 163 97 131 181 321 333 205 175 220 195 179 158 103 120 157 172 72 111 162 88 109 140 158 183 253 299 266 248 209 197 217 223 210 210 225 258 266 204 191 181 147 139 124
169 158 167 177 169 156 158 161 167 179 202 205 188 166 167 155 123 173 169 158 153 167 149 157 161 151 152 154 165 176 160 142 173 193 220 203 205 226 211 192 163 148 142 95 135 168 134 149 157 134 199 186 220 263 223 186 171 148 170 188 176 146 120 146 237 268 122 145 166 168 256 267 254 208 205 217 223 224 216 225 273 310 110 144 147 137 129 113
162 138 162 171 166 159 161 162 184 199 209 212 173 130 140 140 126 165 172 157 136 121 111 128 136 146 158 154 155 161 154 153 181 191 208 217 213 217 215 191 164 155 155 148 168 157 110 108 115 137 208 208 248 296 237 221 186 113 194 202 164 157 139 150 203 223 125 128 144 122 249 269 261 220 213 223 239 253 256 263 282 331 115 127 130 127 115 87
133 81 152 170 169 163 164 174 203 201 233 225 148 111 100 98 107 154 171 175 166 136 134 147 152 164 172 158 144 157 168 175 189 196 207 219 215 218 196 173 162 158 155 141 155 153 118 110 113 59 303 309 322 352 29 329 88 157 238 196 160 180 150 147 183 169 142 172 150 100 276 268 272 267 220 226 248 261 256 250 243 150 126 125 123 112 69 21
128 83 137 169 175 171 170 188 195 200 221 130 143 132 87 69 114 152 176 192 187 154 149 167 184 177 167 145 146 169 180 180 200 207 206 207 209 200 177 172 167 165 177 186 177 174 178 160 128 120 34 353 350 358 338 308 225 206 226 167 150 141 105 107 125 104 141 206 160 145 240 254 273 319 301 234 271 274 244 208 185 162 140 123 102 62 12 349
144 91 106 165 178 181 190 219 191 195 176 96 131 175 156 133 173 171 184 192 182 156 160 187 175 142 128 142 124 165 187 179 179 198 197 240 234 199 180 180 177 180 199 192 160 159 177 184 146 157 178 188 199 208 219 223 198 198 191 152 166 162 141 147 131 111 211 226 158 173 234 258 292 323 339 311 300 278 226 184 182 179 153 125 98 48 345 338
140 173 76 160 180 187 201 243 129 179 172 152 162 177 179 195 202 170 171 193 234 155 116 58 146 119 109 153 131 150 202 206 113 149 188 204 222 263 191 186 187 192 198 166 154 151 141 223 184 191 201 203 207 207 173 124 141 182 182 163 174 174 149 129 113 162 203 164 158 224 231 233 266 271 267 247 230 237 225 197 200 195 172 155 141 58 326 329
140 190 177 171 193 181 196 293 141 133 166 174 175 172 184 194 198 151 178 207 221 165 96 17 146 160 165 163 153 174 201 204 166 160 192 196 203 329 196 187 193 195 184 164 164 149 84 215 205 205 216 221 214 199 160 128 164 185 172 164 175 171 153 150 186 206 164 109 242 243 218 214 236 225 221 225 215 229 234 218 213 205 201 224 253 273 307 318
151 158 169 180 195 187 227 186 162 101 138 170 175 158 179 189 193 183 185 206 128 171 175 330 204 194 178 164 163 174 185 195 204 195 184 171 165 75 96 187 212 195 173 165 170 146 113 208 207 197 219 233 210 159 177 162 168 177 169 174 178 169 169 183 208 212 156 167 240 234 192 214 229 205 209 218 206 211 218 218 218 216 229 256 272 284 305 316
140 122 151 176 184 295 154 146 146 135 146 165 182 160 168 185 198 198 146 96 209 227 186 192 219 209 185 170 166 166 173 184 206 214 183 156 166 151 129 151 237 192 160 142 166 161 151 215 207 174 220 243 217 144 191 170 160 170 178 182 174 173 185 194 210 217 193 210 238 224 176 233 229 191 209 217 211 214 218 221 227 230 244 268 289 299 307 308
144 129 146 158 153 90 131 142 152 165 162 171 198 199 159 185 199 206 181 145 181 239 196 198 214 196 183 185 181 187 192 187 195 203 172 141 152 164 163 182 173 153 151 144 148 181 178 238 135 129 214 257 215 154 175 146 152 168 178 183 173 178 195 203 216 222 210 226 241 238 278 272 233 181 207 221 221 228 238 243 245 248 259 278 289 288 285 284
172 128 136 148 138 144 158 154 159 167 171 186 194 184 181 199 197 198 213 197 178 188 183 182 169 103 129 200 207 215 206 195 198 190 171 168 182 186 188 180 150 138 156 172 156 138 176 223 39 97 192 258 225 183 156 92 79 89 130 177 181 186 199 208 217 217 204 223 237 237 262 266 216 166 197 223 233 243 251 252 255 260 263 269 269 265 265 270
198 147 123 132 144 156 162 150 162 178 190 192 190 184 186 188 159 169 209 246 221 217 197 167 163 137 127 199 219 228 217 207 218 200 184 186 191 188 189 178 162 159 161 172 171 153 165 171 107 136 189 256 285 172 143 103 81 254 224 195 191 198 206 211 223 226 211 211 213 216 235 238 158 154 184 205 223 233 240 243 246 249 252 256 258 260 264 269